Location: Cave
(41.8160°N, 12.9350°E)
Time: 06:26:06
(UTC+02:00)

ISS - Pass Details

Date: 09 July 2019
Orbit: 409 x 418 km, 51.6° (Epoch: 24 July)

Event Time Altitude Azimuth Distance (km) Brightness Sun altitude
Exits shadow 04:01:39 - 291° (WNW) 2,025 -0.5 -14.9°
Reaches altitude 10° 04:03:23 10° 308° (NW) 1,480 -1.0 -14.7°
Maximum altitude 04:05:37 17° 350° (N) 1,143 -1.0 -14.4°
Drops below altitude 10° 04:07:51 10° 33° (NNE) 1,479 0.4 -14.2°
Sets 04:10:29 0° 55° (NE) 2,340 1.7 -13.8°
